Location: Bremen
(53.0830°N, 8.8000°E)
Time: 16:49:20
(UTC+01:00)

Envisat - Pass Details

Date: 03 October 2022
Orbit: 763 x 765 km, 98.2° (Epoch: 30 November)

Event Time Altitude Azimuth Distance (km) Brightness Sun altitude
Rises 04:17:02 0° 28° (NNE) 3,247 7.2 -28.2°
Reaches altitude 10° 04:20:32 10° 53° (NE) 2,314 6.5 -27.8°
Maximum altitude 04:23:11 14° 84° (E) 2,038 5.9 -27.4°
Drops below altitude 10° 04:25:49 10° 116° (ESE) 2,304 5.8 -27.1°
Sets 04:29:17 0° 141° (SE) 3,224 6.3 -26.7°
